This is the latest recevied weather packets stored in our database for station/object WA4IKQ. If no packets are shown the sender has not sent any weather packets the latest 10 day(s).
| Time | Temp. | Humidity | Pressure | Rain* | Wind** | Luminosity | Snow |
|---|---|---|---|---|---|---|---|
| 1777800863 | 18.33° C | 91% | 1015.2 hPa | 0 mm | 1.79 m/s, 312° | - | - |
| 1777800797 | 18.33° C | 91% | 1015.1 hPa | 0 mm | 1.79 m/s, 11° | - | - |
| 1777800563 | 18.33° C | 91% | 1015.1 hPa | 0 mm | 1.79 m/s, 11° | - | - |
| 1777800155 | 18.33° C | 91% | 1015.1 hPa | 0 mm | 0 m/s | - | - |
| 1777799963 | 18.33° C | 91% | 1015.1 hPa | 0 mm | 0 m/s | - | - |
| 1777799953 | 18.33° C | 91% | 1015 hPa | 0 mm | 1.34 m/s, 319° | - | - |
| 1777799899 | 18.33° C | 91% | 1015 hPa | 0 mm | 1.34 m/s, 319° | - | - |
| 1777799659 | 18.33° C | 91% | 1015 hPa | 0 mm | 1.34 m/s, 319° | - | - |
| 1777799622 | 18.33° C | 92% | 1015.1 hPa | 0 mm | 0.89 m/s, 276° | - | - |
| 1777799361 | 18.33° C | 92% | 1015.1 hPa | 0 mm | 0.89 m/s, 276° | - | - |
| 1777798761 | 18.33° C | 92% | 1015 hPa | 0 mm | 1.79 m/s, 297° | - | - |
| 1777797562 | 18.33° C | 92% | 1014.8 hPa | 0 mm | 1.34 m/s, 18° | - | - |
| 1777797500 | 18.33° C | 92% | 1014.6 hPa | 0 mm | 0.89 m/s, 312° | - | - |
| 1777797259 | 18.33° C | 92% | 1014.6 hPa | 0 mm | 0.89 m/s, 312° | - | - |
| 1777797198 | 18.33° C | 92% | 1014.6 hPa | 0 mm | 0.45 m/s, 353° | - | - |
| 1777796963 | 18.33° C | 92% | 1014.6 hPa | 0 mm | 0.45 m/s, 353° | - | - |
| 1777796502 | 18.33° C | 93% | 1014.6 hPa | 0 mm | 0 m/s | - | - |
| 1777796359 | 18.33° C | 92% | 1014.6 hPa | 0 mm | 0 m/s | - | - |
| 1777796056 | 18.33° C | 93% | 1014.6 hPa | 0 mm | 0 m/s | - | - |
| 1777795998 | 18.33° C | 93% | 1014.6 hPa | 0 mm | 0 m/s | - | - |
| 1777795845 | 18.33° C | 93% | 1014.6 hPa | 0 mm | 0 m/s | - | - |
| 1777795758 | 18.33° C | 93% | 1014.6 hPa | 0 mm | 0 m/s | - | - |
| 1777795687 | 18.33° C | 93% | 1014.5 hPa | 0 mm | 0.89 m/s, 287° | - | - |
| 1777795459 | 18.33° C | 93% | 1014.5 hPa | 0 mm | 0.89 m/s, 287° | - | - |
| 1777795389 | 18.33° C | 93% | 1014.4 hPa | 0 mm | 0.89 m/s, 284° | - | - |
* Rain latest hour (hover to see other rain measurements)
** Current wind speed in m/s (hover to see current wind gust speed)